| time (UTC) | temp C | wind direction | speed KPH | gust KPH | rain 1hr cm | rain 24hr cm | rain mn cm | humidity % | barometer mb |
| 20260504081530 | 10 | 136 | 0.0 | 1.6 | 0.00 | 0.00 | 0.00 | 55 | 1009.4 |
| 20260504080104 | 10 | 167 | 0.0 | 0.0 | 0.00 | 0.00 | 0.00 | 53 | 1009.4 |
| 20260504060104 | 11 | 245 | 0.0 | 0.0 | 0.00 | 0.00 | 0.00 | 50 | 1009.8 |
| 20260504044518 | 12 | 212 | 3.2 | 6.4 | 0.00 | 0.00 | 0.00 | 44 | 1009.5 |
| 20260504043042 | 11 | 188 | 3.2 | 9.7 | 0.00 | 0.00 | 0.00 | 48 | 1009.6 |
| 20260504041505 | 10 | 154 | 1.6 | 8.0 | 0.00 | 0.00 | 0.00 | 49 | 1009.4 |
| 20260504040037 | 11 | 210 | 0.0 | 3.2 | 0.00 | 0.00 | 0.00 | 47 | 1009.6 |
| 20260504034504 | 11 | 217 | 0.0 | 3.2 | 0.00 | 0.00 | 0.00 | 44 | 1009.6 |
| 20260504033042 | 11 | 288 | 0.0 | 3.2 | 0.00 | 0.00 | 0.00 | 44 | 1009.6 |
| 20260504031507 | 11 | 261 | 0.0 | 1.6 | 0.00 | 0.00 | 0.00 | 41 | 1009.5 |
| 20260504030040 | 11 | 225 | 0.0 | 1.6 | 0.00 | 0.00 | 0.00 | 42 | 1009.4 |
| 20260504024511 | 11 | 302 | 0.0 | 1.6 | 0.00 | 0.00 | 0.00 | 42 | 1009.7 |
| 20260504023041 | 12 | 229 | 0.0 | 1.6 | 0.00 | 0.00 | 0.00 | 41 | 1009.6 |
| 20260504021512 | 12 | 231 | 0.0 | 1.6 | 0.00 | 0.00 | 0.00 | 42 | 1009.5 |
| 20260504020046 | 11 | 231 | 0.0 | 0.0 | 0.00 | 0.00 | 0.00 | 43 | 1009.3 |
| 20260504014513 | 12 | 155 | 1.6 | 6.4 | 0.00 | 0.00 | 0.00 | 41 | 1009.2 |
| 20260504013049 | 12 | 129 | 0.0 | 1.6 | 0.00 | 0.00 | 0.00 | 39 | 1008.9 |
| 20260504011517 | 13 | 129 | 0.0 | 0.0 | 0.00 | 0.00 | 0.00 | 36 | 1008.8 |
| 20260504010048 | 13 | 129 | 0.0 | 0.0 | 0.00 | 0.00 | 0.00 | 35 | 1008.7 |
| 20260504004519 | 13 | 129 | 0.0 | 1.6 | 0.00 | 0.00 | 0.00 | 36 | 1008.6 |
| 20260504003049 | 14 | 293 | 0.0 | 0.0 | 0.00 | 0.00 | 0.00 | 34 | 1008.5 |
| 20260504001520 | 15 | 293 | 0.0 | 1.6 | 0.00 | 0.00 | 0.00 | 35 | 1008.6 |
| 20260504000127 | 16 | 293 | 0.0 | 0.0 | 0.00 | 0.00 | 0.00 | 37 | 1008.6 |
| 20260503234520 | 18 | 293 | 0.0 | 0.0 | 0.00 | 0.00 | 0.00 | 32 | 1008.5 |
| 20260503233046 | 18 | 293 | 0.0 | 1.6 | 0.00 | 0.00 | 0.00 | 31 | 1008.5 |
| 20260503231515 | 18 | 262 | 0.0 | 6.4 | 0.00 | 0.00 | 0.00 | 28 | 1008.3 |
| 20260503230045 | 18 | 252 | 0.0 | 4.8 | 0.00 | 0.00 | 0.00 | 28 | 1008.3 |
| 20260503224524 | 18 | 204 | 0.0 | 4.8 | 0.00 | 0.00 | 0.00 | 28 | 1008.4 |
| 20260503223042 | 17 | 221 | 3.2 | 8.0 | 0.00 | 0.00 | 0.00 | 28 | 1008.6 |
| 20260503221513 | 18 | 291 | 1.6 | 11.3 | 0.00 | 0.00 | 0.00 | 27 | 1008.8 |
| 20260503220041 | 17 | 303 | 0.0 | 9.7 | 0.00 | 0.00 | 0.00 | 28 | 1008.8 |
| 20260503214507 | 17 | 324 | 1.6 | 12.9 | 0.00 | 0.00 | 0.00 | 29 | 1008.8 |
| 20260503213034 | 17 | 316 | 3.2 | 11.3 | 0.00 | 0.00 | 0.00 | 28 | 1009.0 |
| 20260503211504 | 16 | 321 | 6.4 | 14.5 | 0.00 | 0.00 | 0.00 | 31 | 1009.1 |
| 20260503210029 | 16 | 331 | 4.8 | 11.3 | 0.00 | 0.00 | 0.00 | 29 | 1009.2 |
| 20260503204601 | 16 | 164 | 6.4 | 16.1 | 0.00 | 0.00 | 0.00 | 29 | 1009.3 |
| 20260503203032 | 16 | 255 | 3.2 | 9.7 | 0.00 | 0.00 | 0.00 | 29 | 1009.3 |
| 20260503201559 | 16 | 283 | 6.4 | 16.1 | 0.00 | 0.00 | 0.00 | 30 | 1009.6 |
| 20260503200017 | 16 | 290 | 0.0 | 16.1 | 0.00 | 0.00 | 0.00 | 34 | 1009.9 |
| 20260503194553 | 16 | 293 | 6.4 | 22.5 | 0.00 | 0.00 | 0.00 | 32 | 1010.1 |
| 20260503193014 | 15 | 252 | 4.8 | 12.9 | 0.00 | 0.00 | 0.00 | 32 | 1010.2 |
| 20260503191544 | 15 | 256 | 9.7 | 19.3 | 0.00 | 0.00 | 0.00 | 32 | 1010.5 |
| 20260503190010 | 16 | 32 | 4.8 | 9.7 | 0.00 | 0.00 | 0.00 | 36 | 1010.7 |
| 20260503184556 | 15 | 338 | 6.4 | 16.1 | 0.00 | 0.00 | 0.00 | 33 | 1011.0 |
| 20260503183006 | 14 | 235 | 11.3 | 17.7 | 0.00 | 0.00 | 0.00 | 33 | 1011.1 |
| 20260503181537 | 14 | 343 | 4.8 | 20.9 | 0.00 | 0.00 | 0.00 | 36 | 1011.3 |
| 20260503180059 | 14 | 307 | 1.6 | 20.9 | 0.00 | 0.00 | 0.00 | 35 | 1011.3 |
| 20260503174529 | 13 | 263 | 4.8 | 17.7 | 0.00 | 0.00 | 0.00 | 35 | 1011.7 |
| 20260503173054 | 13 | 50 | 4.8 | 17.7 | 0.00 | 0.00 | 0.00 | 38 | 1011.8 |
| 20260503171521 | 12 | 12 | 3.2 | 22.5 | 0.00 | 0.00 | 0.00 | 40 | 1012.1 |
| 20260503170105 | 12 | 20 | 3.2 | 27.4 | 0.00 | 0.00 | 0.00 | 39 | 1012.3 |